Skip Page Navigation
NASA JPL Caltech
NASA Logo - Jet Propulsion Laboratory + View the NASA Portal
+ Center for Near-Earth Object Studies
JPL Home Earth Solar System Stars & Galaxies Technology
JPL Solar System Dynamics
BODIES ORBITS EPHEMERIDES TOOLS PHYSICAL DATA DISCOVERY FAQ SITE MAP
IMPORTANT: The SSD Announcement email list is now available. Major changes are coming in the near future, including possible hostname and/or URL changes. To be notified of such changes, subscribe to this email list.

Please visit this page for more details.


JPL Small-Body Database Browser
Search: [ help ]  
212661 (2006 UL213)
Classification: Main-belt Asteroid          SPK-ID: 2212661
Ephemeris | Orbit Diagram | Orbital Elements | Mission Design | Physical Parameters | Discovery Circumstances | Close-Approach Data ]

[ show orbit diagram ]
Orbital Elements at Epoch 2458600.5 (2019-Apr-27.0) TDB
Reference: JPL 12 (heliocentric ecliptic J2000)
 Element Value Uncertainty (1-sigma)   Units 
e .04815674920871052 4.4671e-08  
a 2.988258700451535 3.5016e-08 au
q 2.844353875643143 1.461e-07 au
i 2.729530512317037 5.9507e-06 deg
node 8.346403228587002 0.00010411 deg
peri 269.1189581993715 0.00012217 deg
M 283.9942777526633 6.5145e-05 deg
tp 2458998.854296201190
(2020-May-29.35429620)
0.00034309 TDB
period 1886.799340788498
5.17
3.3164e-05
9.08e-08
d
yr
n .1907993034646467 3.3536e-09 deg/d
Q 3.132163525259927 3.6702e-08 au
  Orbit Determination Parameters
   # obs. used (total)      298  
   data-arc span      5035 days (13.79 yr)  
   first obs. used      2005-07-28  
   last obs. used      2019-05-11  
   planetary ephem.      DE431  
   SB-pert. ephem.      SB431-N16  
   condition code      0  
   norm. resid. RMS      .47011  
   source      ORB  
   producer      Otto Matic  
   solution date      2019-May-30 08:20:24  

Additional Information
 Earth MOID = 1.82918 au 
 Jupiter MOID = 1.92709 au 
 T_jup = 3.253 
[ show covariance matrix ]

Ephemeris | Orbit Diagram | Orbital Elements | Mission Design | Physical Parameters | Discovery Circumstances | Close-Approach Data ]

Physical Parameter Table
Parameter Symbol Value Units Sigma Reference Notes
absolute magnitude H 15.9   n/a MPO433390  

212661 (2006 UL213)          Discovered 2006-Oct-23 by Spacewatch at Kitt Peak
Reference: 20090409/Numbers.arcLast Updated: 2009-04-10

[ show close-approach data ]
Alternate Designations
 2006 UL213 = 2008 AJ19 
Ephemeris | Orbit Diagram | Orbital Elements | Mission Design | Physical Parameters | Discovery Circumstances | Close-Approach Data ]
ABOUT SSD CREDITS/AWARDS PRIVACY/COPYRIGHT GLOSSARY LINKS
FirstGov
(server date/time)  
NASA Home Page
Site Manager:   Ryan S. Park
Webmaster  Alan B. Chamberlin